| time (UTC) | temp F | wind direction | speed knots | gust knots | rain 1hr in | rain 24hr in | rain mn in | humidity % | barometer mb |
| 20260507151101 | 59 | 23 | 0.0 | 2.6 | 0.00 | 0.00 | 0.00 | 94 | 1016.0 |
| 20260507150021 | 58 | 23 | 0.9 | 2.6 | 0.00 | 0.00 | 0.00 | 94 | 1015.9 |
| 20260507145021 | 58 | 23 | 0.9 | 1.7 | 0.00 | 0.00 | 0.00 | 95 | 1015.8 |
| 20260507144021 | 57 | 45 | 0.9 | 1.7 | 0.00 | 0.00 | 0.00 | 94 | 1015.9 |
| 20260507143021 | 57 | 45 | 0.9 | 2.6 | 0.00 | 0.00 | 0.00 | 95 | 1015.7 |
| 20260507142021 | 56 | 45 | 1.7 | 2.6 | 0.00 | 0.00 | 0.00 | 94 | 1015.6 |
| 20260507141021 | 56 | 34 | 0.0 | 0.0 | 0.00 | 0.00 | 0.00 | 94 | 1015.6 |
| 20260507140021 | 56 | 37 | 0.0 | 0.0 | 0.00 | 0.00 | 0.00 | 94 | 1015.7 |
| 20260507135041 | 55 | 41 | 0.0 | 0.0 | 0.00 | 0.00 | 0.00 | 95 | 1015.5 |
| 20260507134021 | 55 | 68 | 0.9 | 1.7 | 0.00 | 0.00 | 0.00 | 94 | 1015.4 |
| 20260507133021 | 54 | 45 | 2.6 | 3.5 | 0.00 | 0.00 | 0.00 | 94 | 1015.4 |
| 20260507132040 | 54 | 45 | 0.9 | 1.7 | 0.00 | 0.00 | 0.00 | 94 | 1015.3 |
| 20260507131042 | 54 | 45 | 0.9 | 1.7 | 0.00 | 0.00 | 0.00 | 94 | 1015.4 |
| 20260507130021 | 53 | 23 | 1.7 | 3.5 | 0.00 | 0.00 | 0.00 | 94 | 1015.3 |
| 20260507125021 | 53 | 45 | 1.7 | 3.5 | 0.00 | 0.00 | 0.00 | 94 | 1015.2 |
| 20260507124021 | 53 | 45 | 0.9 | 3.5 | 0.00 | 0.00 | 0.00 | 94 | 1015.0 |
| 20260507123021 | 54 | 45 | 1.7 | 2.6 | 0.00 | 0.00 | 0.00 | 93 | 1015.0 |
| 20260507122020 | 54 | 23 | 1.7 | 2.6 | 0.00 | 0.00 | 0.00 | 94 | 1015.1 |
| 20260507121021 | 53 | 68 | 0.9 | 2.6 | 0.00 | 0.00 | 0.00 | 93 | 1015.0 |
| 20260507120021 | 53 | 45 | 0.9 | 2.6 | 0.00 | 0.00 | 0.00 | 94 | 1015.0 |
| 20260507115020 | 52 | 45 | 1.7 | 3.5 | 0.00 | 0.00 | 0.00 | 93 | 1015.0 |
| 20260507114021 | 52 | 90 | 2.6 | 3.5 | 0.00 | 0.00 | 0.00 | 94 | 1015.0 |
| 20260507113020 | 52 | 45 | 1.7 | 3.5 | 0.00 | 0.00 | 0.00 | 92 | 1014.9 |
| 20260507112021 | 52 | 45 | 1.7 | 3.5 | 0.00 | 0.00 | 0.00 | 93 | 1015.0 |
| 20260507111021 | 53 | 45 | 1.7 | 3.5 | 0.00 | 0.00 | 0.00 | 93 | 1015.0 |
| 20260507110021 | 52 | 45 | 1.7 | 3.5 | 0.00 | 0.00 | 0.00 | 93 | 1015.1 |
| 20260507105020 | 53 | 90 | 0.9 | 1.7 | 0.00 | 0.00 | 0.00 | 93 | 1015.1 |
| 20260507104020 | 52 | 90 | 1.7 | 3.5 | 0.00 | 0.00 | 0.00 | 93 | 1015.3 |
| 20260507103020 | 52 | 45 | 1.7 | 3.5 | 0.00 | 0.00 | 0.00 | 92 | 1015.3 |
| 20260507102021 | 52 | 23 | 1.7 | 2.6 | 0.00 | 0.00 | 0.00 | 92 | 1015.3 |
| 20260507101020 | 52 | 23 | 1.7 | 3.5 | 0.00 | 0.00 | 0.00 | 92 | 1015.3 |
| 20260507100020 | 53 | 68 | 0.9 | 1.7 | 0.00 | 0.00 | 0.00 | 93 | 1015.4 |
| 20260507095021 | 53 | 68 | 1.7 | 3.5 | 0.00 | 0.00 | 0.00 | 93 | 1015.6 |
| 20260507094041 | 52 | 45 | 1.7 | 3.5 | 0.00 | 0.00 | 0.00 | 92 | 1015.6 |
| 20260507093021 | 53 | 90 | 0.9 | 2.6 | 0.00 | 0.00 | 0.00 | 92 | 1015.6 |
| 20260507092020 | 53 | 45 | 1.7 | 2.6 | 0.00 | 0.00 | 0.00 | 92 | 1015.7 |
| 20260507091022 | 52 | 23 | 1.7 | 2.6 | 0.00 | 0.00 | 0.00 | 92 | 1015.8 |
| 20260507090041 | 52 | 23 | 1.7 | 3.5 | 0.00 | 0.00 | 0.00 | 91 | 1015.8 |
| 20260507085020 | 53 | 90 | 0.9 | 2.6 | 0.00 | 0.00 | 0.00 | 92 | 1016.0 |
| 20260507084041 | 53 | 90 | 0.9 | 1.7 | 0.00 | 0.00 | 0.00 | 92 | 1016.0 |
| 20260507083022 | 52 | 68 | 1.7 | 2.6 | 0.00 | 0.00 | 0.00 | 92 | 1016.1 |
| 20260507082020 | 53 | 45 | 1.7 | 3.5 | 0.00 | 0.00 | 0.00 | 91 | 1016.0 |
| 20260507081020 | 53 | 90 | 0.9 | 2.6 | 0.00 | 0.00 | 0.00 | 91 | 1016.3 |
| 20260507080020 | 54 | 90 | 0.9 | 2.6 | 0.00 | 0.00 | 0.00 | 91 | 1016.3 |
| 20260507075022 | 54 | 113 | 1.7 | 2.6 | 0.00 | 0.00 | 0.00 | 91 | 1016.4 |
| 20260507074041 | 53 | 68 | 1.7 | 2.6 | 0.00 | 0.00 | 0.00 | 91 | 1016.4 |
| 20260507073021 | 53 | 45 | 1.7 | 2.6 | 0.00 | 0.00 | 0.00 | 91 | 1016.4 |
| 20260507072022 | 54 | 45 | 0.9 | 2.6 | 0.00 | 0.00 | 0.00 | 91 | 1016.5 |
| 20260507071042 | 54 | 45 | 0.9 | 2.6 | 0.00 | 0.00 | 0.00 | 90 | 1016.6 |
| 20260507070022 | 54 | 45 | 0.9 | 2.6 | 0.00 | 0.00 | 0.00 | 90 | 1016.4 |
| 20260507065041 | 55 | 45 | 0.9 | 1.7 | 0.00 | 0.00 | 0.00 | 91 | 1016.4 |
| 20260507064041 | 54 | 45 | 0.9 | 1.7 | 0.00 | 0.00 | 0.00 | 90 | 1016.5 |
| 20260507063021 | 55 | 45 | 0.9 | 2.6 | 0.00 | 0.00 | 0.00 | 90 | 1016.6 |
| 20260507062020 | 55 | 45 | 0.9 | 1.7 | 0.00 | 0.00 | 0.00 | 90 | 1016.6 |
| 20260507061020 | 55 | 45 | 0.0 | 0.9 | 0.00 | 0.00 | 0.00 | 90 | 1016.6 |
| 20260507060021 | 55 | 45 | 0.9 | 3.5 | 0.00 | 0.00 | 0.00 | 90 | 1016.6 |
| 20260507055021 | 55 | 105 | 0.0 | 0.0 | 0.00 | 0.00 | 0.00 | 89 | 1016.6 |
| 20260507054020 | 55 | 117 | 0.0 | 0.0 | 0.00 | 0.00 | 0.00 | 89 | 1016.5 |
| 20260507053020 | 56 | 117 | 0.0 | 0.0 | 0.00 | 0.00 | 0.00 | 89 | 1016.5 |
| 20260507052020 | 56 | 117 | 0.0 | 0.0 | 0.00 | 0.00 | 0.00 | 89 | 1016.5 |
| 20260507051021 | 56 | 117 | 0.0 | 0.0 | 0.00 | 0.00 | 0.00 | 88 | 1016.5 |
| 20260507050021 | 57 | 144 | 0.0 | 0.0 | 0.00 | 0.00 | 0.00 | 89 | 1016.4 |
| 20260507045025 | 57 | 148 | 0.0 | 0.0 | 0.00 | 0.00 | 0.00 | 88 | 1016.3 |
| 20260507044020 | 57 | 150 | 0.0 | 0.0 | 0.00 | 0.00 | 0.00 | 87 | 1016.3 |
| 20260507043020 | 57 | 153 | 0.0 | 0.0 | 0.00 | 0.00 | 0.00 | 87 | 1016.3 |
| 20260507042022 | 57 | 154 | 0.0 | 0.0 | 0.00 | 0.00 | 0.00 | 87 | 1016.2 |
| 20260507041021 | 58 | 154 | 0.0 | 0.0 | 0.00 | 0.00 | 0.00 | 87 | 1016.1 |
| 20260507040021 | 58 | 158 | 0.0 | 1.7 | 0.00 | 0.00 | 0.00 | 86 | 1016.2 |
| 20260507035021 | 59 | 225 | 0.9 | 1.7 | 0.00 | 0.00 | 0.00 | 85 | 1016.1 |
| 20260507034022 | 59 | 225 | 0.9 | 1.7 | 0.00 | 0.00 | 0.00 | 84 | 1015.9 |
| 20260507033021 | 60 | 248 | 0.0 | 0.9 | 0.00 | 0.00 | 0.00 | 84 | 1015.9 |
| 20260507032021 | 61 | 264 | 0.0 | 0.0 | 0.00 | 0.00 | 0.00 | 82 | 1015.8 |
| 20260507031021 | 61 | 270 | 0.0 | 0.9 | 0.00 | 0.00 | 0.00 | 81 | 1015.7 |
| 20260507030021 | 62 | 265 | 0.0 | 0.0 | 0.00 | 0.00 | 0.00 | 81 | 1015.6 |
| 20260507025021 | 63 | 270 | 0.0 | 1.7 | 0.00 | 0.00 | 0.00 | 80 | 1015.6 |
| 20260507024022 | 63 | 248 | 0.9 | 2.6 | 0.00 | 0.00 | 0.00 | 78 | 1015.5 |
| 20260507023041 | 64 | 225 | 0.9 | 3.5 | 0.00 | 0.00 | 0.00 | 75 | 1015.4 |
| 20260507022021 | 65 | 293 | 0.0 | 2.6 | 0.00 | 0.00 | 0.00 | 73 | 1015.4 |
| 20260507021022 | 66 | 248 | 0.9 | 2.6 | 0.00 | 0.00 | 0.00 | 71 | 1015.3 |
| 20260507020022 | 66 | 293 | 0.9 | 2.6 | 0.00 | 0.00 | 0.00 | 70 | 1015.3 |
| 20260507015021 | 67 | 248 | 1.7 | 3.5 | 0.00 | 0.00 | 0.00 | 68 | 1015.2 |
| 20260507014021 | 67 | 293 | 0.9 | 3.5 | 0.00 | 0.00 | 0.00 | 67 | 1015.3 |
| 20260507013022 | 67 | 248 | 1.7 | 3.5 | 0.00 | 0.00 | 0.00 | 66 | 1015.2 |
| 20260507012022 | 68 | 270 | 1.7 | 3.5 | 0.00 | 0.00 | 0.00 | 68 | 1015.2 |
| 20260507011021 | 68 | 225 | 1.7 | 4.3 | 0.00 | 0.00 | 0.00 | 67 | 1015.2 |
| 20260507010021 | 68 | 293 | 1.7 | 6.1 | 0.00 | 0.00 | 0.00 | 68 | 1015.1 |
| 20260507005021 | 68 | 248 | 2.6 | 7.0 | 0.00 | 0.00 | 0.00 | 71 | 1015.1 |
| 20260507004021 | 68 | 225 | 2.6 | 7.8 | 0.00 | 0.00 | 0.00 | 70 | 1015.1 |
| 20260507003021 | 69 | 248 | 2.6 | 8.7 | 0.00 | 0.00 | 0.00 | 69 | 1015.0 |
| 20260507002021 | 69 | 225 | 1.7 | 3.5 | 0.00 | 0.00 | 0.00 | 68 | 1014.9 |
| 20260507001021 | 69 | 270 | 1.7 | 5.2 | 0.00 | 0.00 | 0.00 | 66 | 1014.8 |
| 20260507000041 | 69 | 248 | 1.7 | 5.2 | 0.00 | 0.00 | 0.00 | 65 | 1014.9 |
| 20260506235022 | 69 | 270 | 2.6 | 6.1 | 0.00 | 0.00 | 0.00 | 64 | 1014.7 |
| 20260506234022 | 69 | 315 | 2.6 | 5.2 | 0.00 | 0.00 | 0.00 | 65 | 1014.7 |
| 20260506233042 | 69 | 293 | 2.6 | 6.1 | 0.00 | 0.00 | 0.00 | 67 | 1014.8 |
| 20260506232021 | 69 | 270 | 2.6 | 6.1 | 0.00 | 0.00 | 0.00 | 64 | 1014.9 |
| 20260506231021 | 70 | 270 | 2.6 | 7.0 | 0.00 | 0.00 | 0.00 | 65 | 1015.0 |
| 20260506230021 | 69 | 270 | 2.6 | 5.2 | 0.00 | 0.00 | 0.00 | 67 | 1015.0 |
| 20260506225041 | 68 | 293 | 3.5 | 7.0 | 0.00 | 0.00 | 0.00 | 68 | 1015.1 |
| 20260506224022 | 69 | 225 | 2.6 | 6.1 | 0.00 | 0.00 | 0.00 | 66 | 1015.2 |
| 20260506223042 | 68 | 225 | 2.6 | 7.8 | 0.00 | 0.00 | 0.00 | 67 | 1015.2 |
| 20260506222020 | 69 | 270 | 3.5 | 7.8 | 0.00 | 0.00 | 0.00 | 66 | 1015.3 |
| 20260506221021 | 69 | 315 | 2.6 | 6.1 | 0.00 | 0.00 | 0.00 | 68 | 1015.4 |
| 20260506220021 | 69 | 293 | 2.6 | 7.8 | 0.00 | 0.00 | 0.00 | 69 | 1015.5 |
| 20260506215026 | 69 | 293 | 2.6 | 6.1 | 0.00 | 0.00 | 0.00 | 68 | 1015.6 |
| 20260506214021 | 69 | 248 | 2.6 | 9.6 | 0.00 | 0.00 | 0.00 | 68 | 1015.5 |
| 20260506213021 | 69 | 270 | 3.5 | 7.0 | 0.00 | 0.00 | 0.00 | 67 | 1015.6 |
| 20260506212021 | 69 | 293 | 2.6 | 7.8 | 0.00 | 0.00 | 0.00 | 67 | 1015.6 |
| 20260506211021 | 70 | 270 | 2.6 | 7.8 | 0.00 | 0.00 | 0.00 | 67 | 1015.7 |
| 20260506210041 | 69 | 248 | 3.5 | 10.4 | 0.00 | 0.00 | 0.00 | 67 | 1015.8 |
| 20260506205021 | 69 | 293 | 3.5 | 7.0 | 0.00 | 0.00 | 0.00 | 67 | 1015.9 |
| 20260506204020 | 68 | 248 | 4.3 | 7.8 | 0.00 | 0.00 | 0.00 | 68 | 1015.8 |
| 20260506203021 | 69 | 270 | 3.5 | 8.7 | 0.00 | 0.00 | 0.00 | 68 | 1016.0 |
| 20260506202021 | 69 | 315 | 3.5 | 8.7 | 0.00 | 0.00 | 0.00 | 67 | 1016.0 |
| 20260506201021 | 68 | 248 | 3.5 | 6.1 | 0.00 | 0.00 | 0.00 | 68 | 1016.1 |
| 20260506200021 | 69 | 293 | 2.6 | 5.2 | 0.00 | 0.00 | 0.00 | 67 | 1016.1 |
| 20260506195020 | 69 | 270 | 4.3 | 7.8 | 0.00 | 0.00 | 0.00 | 66 | 1016.2 |
| 20260506194025 | 70 | 293 | 3.5 | 9.6 | 0.00 | 0.00 | 0.00 | 67 | 1016.3 |
| 20260506193047 | 69 | 293 | 3.5 | 7.8 | 0.00 | 0.00 | 0.00 | 65 | 1016.4 |
| 20260506192021 | 69 | 225 | 3.5 | 8.7 | 0.00 | 0.00 | 0.00 | 65 | 1016.5 |
| 20260506191020 | 69 | 225 | 2.6 | 7.0 | 0.00 | 0.00 | 0.00 | 66 | 1016.4 |
| 20260506190020 | 70 | 248 | 2.6 | 6.1 | 0.00 | 0.00 | 0.00 | 65 | 1016.4 |
| 20260506185020 | 70 | 248 | 2.6 | 6.1 | 0.00 | 0.00 | 0.00 | 66 | 1016.5 |
| 20260506184021 | 69 | 315 | 2.6 | 6.1 | 0.00 | 0.00 | 0.00 | 67 | 1016.7 |
| 20260506183021 | 69 | 293 | 2.6 | 7.0 | 0.00 | 0.00 | 0.00 | 66 | 1016.7 |
| 20260506182020 | 70 | 23 | 1.7 | 5.2 | 0.00 | 0.00 | 0.00 | 66 | 1016.9 |
| 20260506181041 | 69 | 225 | 1.7 | 6.1 | 0.00 | 0.00 | 0.00 | 66 | 1016.9 |
| 20260506180041 | 68 | 315 | 1.7 | 6.1 | 0.00 | 0.00 | 0.00 | 67 | 1017.1 |
| 20260506175041 | 67 | 225 | 2.6 | 5.2 | 0.00 | 0.00 | 0.00 | 69 | 1017.1 |
| 20260506174021 | 67 | 225 | 2.6 | 4.3 | 0.00 | 0.00 | 0.00 | 68 | 1017.1 |
| 20260506173041 | 67 | 315 | 1.7 | 4.3 | 0.00 | 0.00 | 0.00 | 67 | 1017.2 |
| 20260506172021 | 66 | 203 | 1.7 | 6.1 | 0.00 | 0.00 | 0.00 | 68 | 1017.4 |
| 20260506171040 | 66 | 203 | 1.7 | 3.5 | 0.00 | 0.00 | 0.00 | 67 | 1017.4 |
| 20260506170020 | 66 | 225 | 1.7 | 5.2 | 0.00 | 0.00 | 0.00 | 69 | 1017.5 |
| 20260506165022 | 65 | 225 | 0.9 | 3.5 | 0.00 | 0.00 | 0.00 | 69 | 1017.5 |
| 20260506164022 | 65 | 248 | 0.9 | 2.6 | 0.00 | 0.00 | 0.00 | 71 | 1017.5 |
| 20260506163020 | 64 | 225 | 1.7 | 3.5 | 0.00 | 0.00 | 0.00 | 71 | 1017.5 |
| 20260506162021 | 64 | 315 | 0.9 | 2.6 | 0.00 | 0.00 | 0.00 | 73 | 1017.4 |
| 20260506161021 | 64 | 293 | 1.7 | 3.5 | 0.00 | 0.00 | 0.00 | 72 | 1017.4 |
| 20260506160020 | 63 | 158 | 0.9 | 2.6 | 0.00 | 0.00 | 0.00 | 74 | 1017.5 |
| 20260506155022 | 62 | 203 | 0.9 | 2.6 | 0.00 | 0.00 | 0.00 | 75 | 1017.6 |
| 20260506154042 | 63 | 158 | 0.9 | 2.6 | 0.00 | 0.00 | 0.00 | 75 | 1017.6 |
| 20260506153108 | 62 | 203 | 0.9 | 2.6 | 0.00 | 0.00 | 0.00 | 77 | 1017.6 |
| 20260506152020 | 60 | 0 | 0.9 | 1.7 | 0.00 | 0.00 | 0.00 | 79 | 1017.6 |